Voltar ao catálogo

ONEWEB-0259

AtivoComunicaçõesPO
NORAD 48977·PAYLOAD·🇬🇧 United Kingdom

Lançado Jul 1, 2021 de Vostochny Cosmodrome

Loading…

Próximas Passagens (próximas 24 horas)

TLE

AtualizadoSource: CelesTrak SupGP

Época: Sep 14, 2026, 13:37 UTC

1 48977C 21060L   26257.56786296 -.00001045  00000+0 -27379-2 0  2573
2 48977  87.9158 211.0346 0001954  75.4472  26.1716 13.16596004    19

Acompanhe ONEWEB-0259 em tempo real com AllMySat

Download on the App Store